Flag for USA

Past Weather in Woodbridge at Rocky Creek, Florida, USA — Yesterday and Last 2 Weeks

Now
68 °F

Overcast.


Feels Like: 68 °F
Forecast: 72 / 55 °F
Wind: 7 mph from North

Location: Tampa, Peter O Knight Airport

Current Time: Mar 20, 2019 at 9:57:35 pm

Latest Report: Mar 20, 2019 at 8:55 pm


Visibility: 10 mi

Pressure: 30.05 "Hg

Humidity: 56%

Dew Point: 52 °F

Location of Woodbridge at Rocky CreekLocation

Past Weather in Woodbridge at Rocky Creek — Graph

°F

Woodbridge at Rocky Creek Temperature Yesterday

Maximum temperature yesterday: 64 °F (at 4:55 pm)
Minimum temperature yesterday: 55 °F (at 12:55 am)
Average temperature yesterday: 59 °F

High & Low Weather Summary for the Past Weeks

 TemperatureHumidityPressure
High86 °F (Mar 15, 2:55 pm)100% (Mar 8, 4:35 am)30.38 "Hg (Mar 8, 4:35 am)
Low43 °F (Mar 6, 6:55 am)24% (Mar 6, 5:35 pm)30.02 "Hg (Mar 20, 4:15 pm)
Average68 °F74%30.16 "Hg
* Reported Mar 5 7:15 pm — Mar 20 8:35 pm, Woodbridge at Rocky Creek. Weather by CustomWeather, © 2019

Note: Actual official high and low records may vary slightly from our data, if they occured in-between our weather recording intervals... More about our weather records

Advertising

Woodbridge at Rocky Creek Weather History for the Previous 24 Hours

Scroll right to see more
 ConditionsComfort  
Time TempWeatherWind HumidityBarometerVisibility
8:35 pm
Wed, Mar 20
70 °FOvercast.6 mph57%30.04 "Hg10 mi
8:15 pm72 °FOvercast.6 mph57%30.03 "Hg10 mi
7:55 pm72 °FMostly cloudy.6 mph57%30.03 "Hg10 mi
7:35 pm72 °FMostly cloudy.8 mph57%30.03 "Hg10 mi
7:15 pm72 °FCloudy.6 mph57%30.02 "Hg10 mi
6:35 pm73 °FMostly cloudy.8 mph57%30.02 "Hg10 mi
6:15 pm73 °FMore clouds than sun.7 mph57%30.02 "Hg10 mi
5:55 pm73 °FMostly cloudy.7 mph57%30.02 "Hg10 mi
5:35 pm73 °FMostly cloudy.6 mph57%30.02 "Hg10 mi
5:15 pm73 °FMostly cloudy.6 mph57%30.02 "Hg10 mi
4:55 pm75 °FMore clouds than sun.9 mph57%30.02 "Hg10 mi
4:35 pm75 °FMore clouds than sun.6 mph57%30.02 "Hg10 mi
4:15 pm75 °FMore clouds than sun.7 mph57%30.02 "Hg10 mi
3:55 pm73 °FMostly cloudy.9 mph61%30.03 "Hg10 mi
3:35 pm73 °FOvercast.7 mph61%30.04 "Hg10 mi
3:15 pm73 °FOvercast.7 mph57%30.04 "Hg10 mi
2:55 pm73 °FOvercast.9 mph57%30.04 "Hg10 mi
2:35 pm73 °FOvercast.10 mph61%30.05 "Hg10 mi
2:15 pm73 °FOvercast.9 mph57%30.06 "Hg10 mi
1:55 pm72 °FOvercast.12 mph61%30.07 "Hg10 mi
1:35 pm73 °FMostly cloudy.12 mph57%30.08 "Hg10 mi
1:15 pm73 °FMostly cloudy.10 mph57%30.09 "Hg10 mi
12:55 pm73 °FMore clouds than sun.9 mph57%30.09 "Hg10 mi
12:35 pm72 °FOvercast.10 mph61%30.09 "Hg10 mi
12:15 pm73 °FOvercast.12 mph57%30.10 "Hg10 mi
11:55 am72 °FOvercast.12 mph61%30.10 "Hg10 mi
11:35 am70 °FCloudy.10 mph60%30.11 "Hg10 mi
11:15 am70 °FBroken clouds.14 mph60%30.10 "Hg10 mi
10:55 am68 °FPartly sunny.15 mph64%30.10 "Hg10 mi
10:35 am68 °FScattered clouds.17 mph60%30.11 "Hg10 mi
10:15 am64 °FOvercast.10 mph68%30.11 "Hg10 mi
9:35 am63 °FMore clouds than sun.10 mph73%30.10 "Hg10 mi
8:55 am61 °FOvercast.10 mph77%30.09 "Hg10 mi
8:35 am61 °FOvercast.13 mph77%30.08 "Hg10 mi
8:15 am61 °FMore clouds than sun.13 mph77%30.08 "Hg10 mi
7:55 am61 °FOvercast.14 mph77%30.08 "Hg10 mi
7:35 am61 °FOvercast.16 mph77%30.07 "Hg10 mi
7:15 am61 °FOvercast.15 mph77%30.07 "Hg10 mi
6:55 am61 °FMostly cloudy.13 mph77%30.06 "Hg10 mi
6:35 am61 °FMostly cloudy.14 mph77%30.06 "Hg10 mi
6:15 am61 °FMostly cloudy.12 mph77%30.06 "Hg10 mi
5:55 am61 °FOvercast.13 mph77%30.06 "Hg10 mi
5:35 am61 °FMostly cloudy.10 mph77%30.06 "Hg10 mi
5:15 am61 °FMostly cloudy.12 mph77%30.05 "Hg10 mi
4:55 am59 °FOvercast.16 mph82%30.06 "Hg10 mi
4:35 am59 °FOvercast.18 mph82%30.06 "Hg10 mi
4:15 am59 °FOvercast.18 mph82%30.06 "Hg10 mi
3:55 am59 °FMostly cloudy.18 mph82%30.07 "Hg10 mi
3:35 am59 °FMostly cloudy.15 mph82%30.08 "Hg10 mi
3:15 am59 °FOvercast.13 mph82%30.09 "Hg10 mi
2:55 am59 °FOvercast.15 mph82%30.09 "Hg10 mi
2:35 am59 °FOvercast.10 mph82%30.09 "Hg10 mi
1:55 am59 °FOvercast.16 mph82%30.10 "Hg10 mi
1:35 am61 °FOvercast.16 mph77%30.11 "Hg10 mi
1:15 am61 °FMostly cloudy.18 mph77%30.11 "Hg10 mi
12:55 am61 °FOvercast.18 mph83%30.12 "Hg10 mi
12:35 am61 °FOvercast.15 mph77%30.12 "Hg10 mi
12:15 am61 °FMostly cloudy.15 mph83%30.12 "Hg10 mi
11:55 pm
Tue, Mar 19
61 °FOvercast.12 mph83%30.13 "Hg10 mi
11:35 pm61 °FMostly cloudy.15 mph83%30.13 "Hg10 mi
11:15 pm61 °FMostly cloudy.16 mph83%30.12 "Hg10 mi
10:55 pm61 °FOvercast.15 mph83%30.14 "Hg10 mi
10:35 pm63 °FMostly cloudy.12 mph88%30.14 "Hg10 mi
10:15 pm63 °FOvercast.16 mph88%30.13 "Hg10 mi
9:35 pm63 °FOvercast.12 mph94%30.12 "Hg10 mi
Weather by CustomWeather, © 2019

See weather overview